Location: Unspecified
(50.7693°N, 0.0000°E)
Time: 05:08:07
(UTC+00:00)

deb Explorer IX - Pass Details

Date: 19 June 2019
Orbit: 540 x 1111 km, 38.8° (Epoch: 20 August)

Event Time Altitude Azimuth Distance (km) Brightness Sun altitude
Rises 14:22:57 0° 212° (SSW) 3,892 ? 51.3°
Reaches altitude 10° 14:26:35 10° 195° (SSW) 2,964 ? 50.9°
Maximum altitude 14:31:23 19° 154° (SSE) 2,365 ? 50.2°
Drops below altitude 10° 14:36:08 10° 113° (ESE) 2,923 ? 49.5°
Sets 14:39:40 0° 96° (E) 3,820 ? 49.0°
